Find Starlink 4436

NORAD ID: 53479 Int'l Des: 2022-099 Owner: SPXS Country: US Constellation: starlink operational
LEOCIRCULARRETROGRADESSO

Live Position

Loading 3D Globe...

About Starlink 4436

Description loading...

Upcoming Passes

Passes for default location (London). Set your location on the main map for personalized predictions.

Altitude History

Loading altitude history...

Two-Line Element Set

1 53479U 22099Q 26130.30955580 -.00003061 00000-0 -20786-3 0 9995
2 53479 97.5140 251.8915 0001570 133.0894 227.0465 15.05692684205322
Epoch: May 10, 2026 • Age: 11 hours

Current Status

Altitude 577.1 km
Velocity 7.57 km/s
Sub-Earth Point -73.95°S, 95.32°W
Launch Date Aug 12, 2022
Age 3.7 years
Type internet

Technical Details

Classification Payload
Mass 300.00 kg
Dry Mass 275.00 kg
Total Mass 300.00 kg
Length 0.20 m
Diameter 2.80 m
Span 9.00 m
Shape Box + pan
Manufacturer SPXS
Bus Type Starlink
Phase Status In Orbit
Owner/State SPXS/US

Most Searched